Flag for U.S.A. Weather past 2 weeks in Metairie, Louisiana, U.S.A.

67 °F


Feels Like: 67 °F
Forecast: 64 / 75 °F
Wind: 3 mph from East

Location: New Orleans International Airport

Current Time: Nov 28, 2015 at 4:31:17 AM

Latest Report: Nov 28, 2015 at 3:53 AM

Visibility: 10 mi

Pressure: 30.18 "Hg

Humidity: 85%

Dew point: 62 °F

Location of MetairieLocation

Historic Weather in Metairie — Graph


Metairie temperature yesterday

Maximum temperature yesterday: 79 °F (at 12:53 PM)
Minimum temperature yesterday: 65 °F (at 3:53 AM)
Average temperature yesterday: 70 °F

Past Weeks' High & Low Weather Summary

High82 °F (Nov 17, 12:00 PM)93% (Nov 18, 6:53 AM)30.38 "Hg (Nov 18, 6:53 AM)
Low43 °F (Nov 23, 11:53 PM)28% (Nov 14, 12:53 PM)29.75 "Hg (Nov 18, 12:53 AM)
Average63 °F66%30.15 "Hg
* Reported Nov 13 2:53 AM — Nov 28 2:53 AM, Metairie, Weather by CustomWeather, © 2015

Note: Actual official high and low records may vary slightly from our data, if they occured in-between our weather recording intervals... More about our weather records


Metairie weather history for previous 24 hours

Time TempWeatherWind HumidityBarometerVisibility
2:53 AM
Sat, Nov 28
67 °FPassing clouds.6 mph87%30.17 "Hg10 mi
1:53 AM68 °FPassing clouds.6 mph84%30.19 "Hg9 mi
12:53 AM69 °FPassing clouds.6 mph84%30.19 "Hg9 mi
11:53 PM
Fri, Nov 27
68 °FPassing clouds.7 mph87%30.20 "Hg9 mi
10:53 PM68 °FPassing clouds.7 mph87%30.22 "Hg8 mi
9:53 PM69 °FPassing clouds.9 mph84%30.22 "Hg8 mi
8:53 PM68 °FMostly cloudy.9 mph87%30.23 "Hg10 mi
7:53 PM69 °FMostly cloudy.8 mph84%30.22 "Hg10 mi
6:53 PM68 °FOvercast.8 mph87%30.22 "Hg9 mi
5:53 PM69 °FMostly cloudy.9 mph84%30.21 "Hg10 mi
4:53 PM72 °FMore clouds than sun.10 mph78%30.21 "Hg10 mi
3:53 PM75 °FMore clouds than sun.14 mph66%30.21 "Hg10 mi
2:53 PM76 °FMore clouds than sun.13 mph67%30.22 "Hg10 mi
1:53 PM77 °FMore clouds than sun.17 mph62%30.22 "Hg10 mi
12:53 PM79 °FMore clouds than sun.13 mph60%30.23 "Hg10 mi
11:53 AM77 °FBroken clouds.13 mph64%30.26 "Hg10 mi
10:53 AM76 °FBroken clouds.18 mph67%30.27 "Hg10 mi
9:53 AM73 °FBroken clouds.14 mph74%30.29 "Hg10 mi
8:53 AM69 °FOvercast.9 mph81%30.29 "Hg10 mi
7:53 AM67 °FMore clouds than sun.9 mph87%30.28 "Hg8 mi
6:53 AM66 °FMore clouds than sun.7 mph87%30.28 "Hg8 mi
5:53 AM66 °FMostly cloudy.6 mph87%30.27 "Hg10 mi
4:53 AM66 °FMostly cloudy.8 mph87%30.25 "Hg10 mi
Weather by CustomWeather, © 2015

See weather overviewHow to use our weather pages